| time (UTC) | temp C | wind direction | speed KPH | gust KPH | rain 1hr cm | rain 24hr cm | rain mn cm | humidity % | barometer mb |
| 20260510041508 | 8 | 27 | 3.2 | 3.2 | 0.00 | 1.27 | 0.03 | 99 | 1013.9 |
| 20260510040009 | 8 | 337 | 1.6 | 6.4 | 0.00 | 1.27 | 0.03 | 99 | 1014.0 |
| 20260510034508 | 8 | 0 | 0.0 | 0.0 | 0.00 | 1.27 | 0.03 | 99 | 1014.0 |
| 20260510031509 | 9 | 270 | 0.0 | 3.2 | 0.00 | 1.27 | 0.03 | 99 | 1014.2 |
| 20260510030009 | 9 | 270 | 0.0 | 3.2 | 0.00 | 1.27 | 0.03 | 99 | 1014.2 |
| 20260510020009 | 10 | 327 | 3.2 | 6.4 | 0.00 | 1.27 | 0.03 | 99 | 1014.1 |
| 20260510014508 | 10 | 291 | 3.2 | 3.2 | 0.00 | 1.27 | 0.03 | 99 | 1014.2 |
| 20260510011508 | 10 | 289 | 1.6 | 3.2 | 0.00 | 1.27 | 0.03 | 99 | 1014.7 |
| 20260510004508 | 11 | 351 | 0.0 | 3.2 | 0.00 | 1.27 | 0.03 | 99 | 1015.1 |
| 20260510001509 | 11 | 294 | 1.6 | 3.2 | 0.00 | 1.27 | 0.03 | 99 | 1015.5 |
| 20260510000009 | 11 | 304 | 0.0 | 3.2 | 0.00 | 1.27 | 0.03 | 99 | 1015.7 |
| 20260509234508 | 11 | 278 | 0.0 | 3.2 | 0.00 | 1.27 | 0.03 | 99 | 1015.9 |
| 20260509233008 | 11 | 266 | 0.0 | 3.2 | 0.00 | 1.27 | 0.03 | 99 | 1016.1 |
| 20260509231508 | 11 | 314 | 0.0 | 3.2 | 0.03 | 1.27 | 0.03 | 99 | 1016.4 |
| 20260509230009 | 11 | 285 | 3.2 | 6.4 | 0.03 | 1.27 | 0.03 | 99 | 1016.5 |
| 20260509224509 | 12 | 273 | 3.2 | 6.4 | 0.03 | 1.27 | 0.03 | 99 | 1016.5 |
| 20260509223010 | 12 | 313 | 1.6 | 3.2 | 0.03 | 1.27 | 0.03 | 99 | 1016.7 |
| 20260509221508 | 12 | 0 | 0.0 | 0.0 | 0.00 | 1.22 | 0.00 | 99 | 1016.5 |
| 20260509220011 | 12 | 248 | 0.0 | 3.2 | 0.00 | 1.22 | 0.00 | 99 | 1016.6 |
| 20260509214509 | 12 | 304 | 0.0 | 3.2 | 0.03 | 1.22 | 1.22 | 99 | 1016.4 |
| 20260509213008 | 12 | 6 | 1.6 | 3.2 | 0.03 | 1.22 | 1.22 | 99 | 1016.5 |
| 20260509211508 | 12 | 349 | 3.2 | 6.4 | 0.05 | 1.22 | 1.22 | 99 | 1016.3 |
| 20260509210009 | 12 | 322 | 0.0 | 3.2 | 0.05 | 1.22 | 1.22 | 99 | 1016.2 |
| 20260509204508 | 12 | 318 | 1.6 | 3.2 | 0.03 | 1.19 | 1.19 | 99 | 1016.1 |
| 20260509203008 | 12 | 333 | 1.6 | 6.4 | 0.05 | 1.19 | 1.19 | 99 | 1015.5 |
| 20260509201508 | 12 | 283 | 1.6 | 3.2 | 0.05 | 1.17 | 1.17 | 99 | 1015.3 |
| 20260509200009 | 12 | 273 | 1.6 | 3.2 | 0.13 | 1.17 | 1.17 | 99 | 1015.4 |
| 20260509194508 | 12 | 280 | 1.6 | 3.2 | 0.18 | 1.17 | 1.17 | 99 | 1015.1 |
| 20260509193009 | 12 | 251 | 0.0 | 3.2 | 0.23 | 1.14 | 1.14 | 99 | 1014.8 |
| 20260509191508 | 12 | 244 | 0.0 | 3.2 | 0.38 | 1.12 | 1.12 | 99 | 1014.3 |
| 20260509190009 | 12 | 240 | 3.2 | 3.2 | 0.43 | 1.04 | 1.04 | 99 | 1014.4 |
| 20260509181508 | 12 | 145 | 3.2 | 3.2 | 0.43 | 0.71 | 0.71 | 99 | 1015.6 |
| 20260509180008 | 12 | 45 | 0.0 | 3.2 | 0.46 | 0.61 | 0.61 | 99 | 1015.5 |
| 20260509173008 | 13 | 88 | 1.6 | 6.4 | 0.38 | 0.38 | 0.38 | 99 | 1015.7 |
| 20260509171508 | 13 | 331 | 3.2 | 3.2 | 0.30 | 0.30 | 0.30 | 99 | 1015.7 |
| 20260509170008 | 13 | 118 | 3.2 | 6.4 | 0.13 | 0.13 | 0.13 | 99 | 1015.9 |
| 20260509163008 | 14 | 153 | 8.0 | 12.9 | 0.00 | 0.00 | 0.00 | 97 | 1015.3 |
| 20260509161508 | 15 | 138 | 6.4 | 14.5 | 0.00 | 0.00 | 0.00 | 95 | 1014.7 |
| 20260509160008 | 15 | 127 | 8.0 | 11.3 | 0.00 | 0.00 | 0.00 | 92 | 1014.6 |
| 20260509154507 | 15 | 115 | 4.8 | 11.3 | 0.00 | 0.00 | 0.00 | 91 | 1014.8 |
| 20260509153009 | 16 | 119 | 8.0 | 14.5 | 0.00 | 0.00 | 0.00 | 90 | 1014.9 |
| 20260509151508 | 16 | 113 | 9.7 | 17.7 | 0.00 | 0.00 | 0.00 | 90 | 1015.0 |
| 20260509150008 | 16 | 133 | 6.4 | 9.7 | 0.00 | 0.00 | 0.00 | 84 | 1015.8 |
| 20260509144508 | 17 | 121 | 1.6 | 3.2 | 0.00 | 0.00 | 0.00 | 80 | 1015.3 |
| 20260509143008 | 17 | 138 | 1.6 | 6.4 | 0.00 | 0.00 | 0.00 | 81 | 1016.0 |
| 20260509141508 | 17 | 119 | 6.4 | 12.9 | 0.00 | 0.00 | 0.00 | 83 | 1016.1 |
| 20260509140008 | 17 | 117 | 3.2 | 12.9 | 0.00 | 0.00 | 0.00 | 83 | 1015.9 |
| 20260509131508 | 17 | 105 | 0.0 | 6.4 | 0.00 | 0.00 | 0.00 | 85 | 1015.9 |
| 20260509124507 | 16 | 100 | 9.7 | 17.7 | 0.00 | 0.00 | 0.00 | 87 | 1016.4 |
| 20260509121508 | 16 | 103 | 12.9 | 17.7 | 0.00 | 0.00 | 0.00 | 84 | 1017.1 |
| 20260509120008 | 16 | 115 | 17.7 | 24.1 | 0.00 | 0.00 | 0.00 | 83 | 1017.2 |
| 20260509113008 | 17 | 113 | 11.3 | 22.5 | 0.00 | 0.00 | 0.00 | 78 | 1017.1 |
| 20260509110008 | 17 | 109 | 12.9 | 22.5 | 0.00 | 0.00 | 0.00 | 80 | 1017.2 |
| 20260509104507 | 17 | 106 | 12.9 | 20.9 | 0.00 | 0.00 | 0.00 | 77 | 1017.1 |
| 20260509103008 | 18 | 90 | 6.4 | 20.9 | 0.00 | 0.00 | 0.00 | 72 | 1017.6 |
| 20260509101507 | 18 | 103 | 9.7 | 20.9 | 0.00 | 0.00 | 0.00 | 67 | 1017.1 |
| 20260509094507 | 18 | 102 | 4.8 | 9.7 | 0.00 | 0.00 | 0.00 | 70 | 1017.1 |
| 20260509093008 | 19 | 210 | 1.6 | 9.7 | 0.00 | 0.00 | 0.00 | 69 | 1016.9 |
| 20260509084508 | 17 | 55 | 1.6 | 6.4 | 0.00 | 0.00 | 0.00 | 75 | 1016.7 |
| 20260509083008 | 16 | 122 | 3.2 | 3.2 | 0.00 | 0.00 | 0.00 | 81 | 1017.0 |
| 20260509081507 | 15 | 194 | 1.6 | 6.4 | 0.00 | 0.00 | 0.00 | 85 | 1017.2 |
| 20260509074507 | 15 | 89 | 0.0 | 3.2 | 0.00 | 0.00 | 0.00 | 83 | 1017.0 |
| 20260509073008 | 15 | 333 | 0.0 | 3.2 | 0.00 | 0.00 | 0.00 | 87 | 1017.4 |
| 20260509071507 | 13 | 297 | 1.6 | 3.2 | 0.00 | 0.00 | 0.00 | 92 | 1017.4 |
| 20260509070007 | 12 | 279 | 3.2 | 3.2 | 0.00 | 0.00 | 0.00 | 96 | 1017.5 |
| 20260509064508 | 12 | 270 | 0.0 | 3.2 | 0.00 | 0.00 | 0.00 | 97 | 1017.4 |
| 20260509063007 | 11 | 287 | 0.0 | 3.2 | 0.00 | 0.00 | 0.00 | 99 | 1017.5 |
| 20260509061507 | 10 | 231 | 0.0 | 6.4 | 0.00 | 0.00 | 0.00 | 99 | 1017.6 |
| 20260509060008 | 10 | 257 | 1.6 | 6.4 | 0.00 | 0.00 | 0.00 | 99 | 1017.8 |
| 20260509054507 | 9 | 268 | 0.0 | 3.2 | 0.00 | 0.00 | 0.00 | 99 | 1017.6 |
| 20260509053007 | 9 | 294 | 0.0 | 3.2 | 0.00 | 0.00 | 0.00 | 99 | 1017.6 |
| 20260509051507 | 9 | 19 | 1.6 | 3.2 | 0.00 | 0.00 | 0.00 | 99 | 1017.5 |
| 20260509044507 | 9 | 298 | 3.2 | 6.4 | 0.00 | 0.00 | 0.00 | 99 | 1017.1 |
| 20260509043008 | 8 | 245 | 1.6 | 3.2 | 0.00 | 0.00 | 0.00 | 99 | 1016.9 |